|  Orbital Elements
Epoch 2022 Aug. 9.0 TT = JDT 2459800.5
T 2022 May 29.64027 TT                                  Rudenko
q   1.6139205            (2000.0)            P               Q
n   0.10072835     Peri.  344.74929     +0.78332786     +0.61098860
a   4.5747592      Node   336.41373     -0.53620580     +0.57105146
e   0.6472119      Incl.   16.61508     -0.31445318     +0.54826377
P   9.78
>From 386 observations 2012 July 23-2022 Nov. 1, mean residual 0".6.
 
 |